Regional Weather Roundup
Issued by NWS

Home | Current Version | Previous Version | Text Only | Print | Product List | Glossary Off
Versions: 1 2 3 4 5 6 7 8 9 10 11 12 13 14 15 16 17 18 19 20 21 22 23 24 25 26 27 28 29 30 31 32 33 34 35 36 37 38 39 40 41 42 43 44 45 46 47 48 49 50

000
ASUS43 KDTX 230210
RWRMI
MICHIGAN HOURLY REGIONAL WEATHER ROUNDUP
NATIONAL WEATHER SERVICE DETROIT/PONTIAC MI
ISSUED BY NATIONAL WEATHER SERVICE GRAND RAPIDS MI
900 PM EST SUN JAN 22 2017

NOTE: "FAIR" INDICATES FEW OR NO CLOUDS BELOW 12,000 FEET WITH NO
SIGNIFICANT WEATHER AND/OR OBSTRUCTION TO VISIBILITY.

MIZ047>049-052>055-059>063-066>070-074>076-081>083-230300-
SOUTHEAST LOWER MICHIGAN

CITY           SKY/WX    TMP DP  RH WIND       PRES   REMARKS
ADRIAN         FOG       45  45 100 NE7       29.63R VSB 3/4
ALMA           FOG       40  40  98 NW5       29.65F VSB 1/4
ANN ARBOR      FOG       47  47 100 N5        29.62R VSB 3/4
BAD AXE        FOG       41  41 100 CALM      29.67S VSB 1/2
DETROIT CITY   FOG       45  45 100 E6        29.63S VSB 1/4
DETROIT        FOG       47  46  97 E6        29.63S VSB 3/4
FLINT          FOG       41  40  96 N5        29.64F VSB 3/4
GROSSE ILE     FOG       45  44  99 NE6       29.61S VSB 1/4
HILLSDALE      FOG       45  45 100 NE9       29.61R VSB 1
HOWELL         FOG       42  41  97 N3        29.63R VSB 3/4

CITY           SKY/WX    TMP DP  RH WIND       PRES   REMARKS
JACKSON        FOG       44  43  96 N5        29.62R VSB 1/4
LANSING        FOG       41  38  89 N6        29.64F VSB 1
MASON          FOG       41  41 100 N3        29.63R VSB 1
MONROE         FOG       46  46 100 NE6       29.61R VSB 1/2
MT. CLEMENS    FOG       42  42 100 NE3       29.61S VSB 1/16
PONTIAC        FOG       44  43  96 N5        29.61S VSB 1/4
PORT HOPE        N/A     38  37  97 SE3       29.66R
PORT HURON     FOG       41  41 100 NE5       29.65S VSB 1/2
TRI CITIES     FOG       38  38 100 NE6       29.67R VSB 1/4 WCI  33
YPSILANTI      CLOUDY    48  48 100 E8        29.63R FOG
$$
MIZ043>046-050>051-056>058-064>065-071>073-077>080-230300-
SOUTHWEST LOWER MICHIGAN

CITY           SKY/WX    TMP DP  RH WIND       PRES   REMARKS
BATTLE CREEK   CLOUDY    41  41 100 NE7       29.63S FOG
BENTON HARBOR  CLOUDY    41  39  93 VRB3      29.64R FOG
BIG RAPIDS     FOG       35  34  98 CALM      29.64S VSB 1/4
COLDWATER      FOG       44  44 100 N5        29.62R VSB 3/4
HOLLAND        CLOUDY    41  39  93 CALM      29.65R
GRAND RAPIDS   CLOUDY    42  39  89 NE6       29.64S FOG
KALAMAZOO      CLOUDY    42  40  92 N5        29.64R FOG
MARSHALL       CLOUDY    41  41  99 CALM      29.62R FOG
MOUNT PLEASANT FOG       37  37  99 CALM      29.65S VSB 1/4
MUSKEGON       CLOUDY    41  39  93 N3        29.65S
STURGIS        FOG       42  42 100 NE5       29.61R VSB 1/2
$$
MIZ016>042-230300-
NORTHERN LOWER MICHIGAN

CITY           SKY/WX    TMP DP  RH WIND       PRES   REMARKS
ALPENA         FOG       38  37  97 N3        29.69S VSB 1/2
BEAVER ISLAND  CLOUDY    35  35 100 E5        29.69S FOG     WCI  31
BELLAIRE       CLOUDY    35  35  99 CALM      29.68S FOG
CADILLAC       CLOUDY    38  37  97 CALM      29.64F
CHARLEVOIX     CLOUDY    38  38 100 CALM      29.71S FOG
GAYLORD        FOG       39  36  89 CALM      29.65F VSB 1/4
HOUGHTON LAKE  FOG       37  36  96 CALM      29.65F VSB 3/4
MANISTEE       CLOUDY    37  37 100 CALM      29.66F FOG
OSCODA         FOG       39  38  97 CALM      29.68R VSB 1
PELLSTON       FOG       35  33  92 CALM      29.69S VSB 3/4
TRAVERSE CITY  CLOUDY    38  37  97 CALM      29.66F FOG
LUDINGTON      FOG       33  33 100 CALM      29.66F VSB<1/4
$$
MIZ007>008-015-230300-
EASTERN UPPER MICHIGAN

CITY           SKY/WX    TMP DP  RH WIND       PRES   REMARKS
KINROSS        MIX PCPN  35  35 100 E6        29.71S FOG     WCI  30
MACKINAC ISLAN FOG       35  35 100 E8        29.69F VSB 1/2 WCI  28
NEWBERRY       FOG       34  33  96 CALM      29.68S VSB 1
S. S. MARIE    FOG       37  36  96 CALM      29.70F VSB 1/2
$$
MIZ004>006-011>014-085-230300-
CENTRAL UPPER MICHIGAN

CITY           SKY/WX    TMP DP  RH WIND       PRES   REMARKS
MANISTIQUE     FOG       35  34  97 E3        29.68S VSB 3/4
ESCANABA       FOG       35  35 100 CALM      29.68F VSB 1/4
$$
MIZ001>003-009>011-084-230300-
WESTERN UPPER MICHIGAN

CITY           SKY/WX    TMP DP  RH WIND       PRES   REMARKS
IRON MOUNTAIN  CLOUDY    37  35  92 CALM      29.66S
HOUGHTON       CLOUDY    35  33  92 NW10      29.66R FOG     WCI  27
COPPER HARBOR    N/A     36  35  96 CALM      29.66S
IRONWOOD       FOG       34  34 100 W5        29.71F VSB 1/2 WCI  30
$$

ABBREVIATIONS USED IN REMARKS
   TC - TEMPERATURE IN CELSIUS
  WCI - WIND CHILL INDEX
   HX - HEAT INDEX
  VSB - VISIBILITY





USA.gov is the U.S. government's official web portal to all federal, state and local government web resources and services.